Orbital Elements
Epoch 2013 Apr. 18.0 TT = JDT 2456400.5
T 2013 Apr. 9.55214 TT MPC
q 2.4156497 (2000.0) P Q
z +0.0167998 Peri. 125.64075 -0.27945917 -0.25215608
+/-0.0000000 Node 68.42215 -0.79557157 -0.47940170
e 0.9594175 Incl. 85.05360 +0.53755786 -0.84058987
From 126 observations 2013 May 9-July 9, mean residual 0".5.
|